DW9852 Weather Reports


Display with metric or nautical units.
time (UTC)temp
F
wind
direction
speed
MPH
gust
MPH
rain 1hr
in
rain 24hr
in
rain mn
in
humidity
%
barometer
mb
20260505014044 77 212 0.0 3.0 0.00 0.00 0.00 72 1011.4
20260505013541 77 0 0.0 2.0 0.00 0.00 0.00 72 1011.3
20260505013045 77 0 0.0 4.0 0.00 0.00 0.00 71 1011.4
20260505012541 78 0 1.0 5.0 0.00 0.00 0.00 70 1011.4
20260505012043 78 231 0.0 5.0 0.00 0.00 0.00 70 1011.2
20260505011549 78 0 0.0 5.0 0.00 0.00 0.00 69 1011.2
20260505011041 79 0 0.0 4.0 0.00 0.00 0.00 68 1011.2
20260505010543 79 195 0.0 4.0 0.00 0.00 0.00 68 1011.2
20260505010047 79 0 1.0 4.0 0.00 0.00 0.00 67 1011.3
20260505005539 79 0 0.0 7.0 0.00 0.00 0.00 67 1011.3
20260505005039 80 0 3.0 8.0 0.00 0.00 0.00 66 1011.2
20260505004554 80 0 1.0 10.0 0.00 0.00 0.00 66 1011.1
20260505004038 80 0 1.0 10.0 0.00 0.00 0.00 65 1011.0
20260505003538 80 208 1.0 10.0 0.00 0.00 0.00 65 1011.0
20260505003046 80 207 3.0 10.0 0.00 0.00 0.00 65 1010.8
20260505002542 80 209 3.0 7.0 0.00 0.00 0.00 64 1010.9
20260505002039 81 175 0.0 10.0 0.00 0.00 0.00 65 1011.1
20260505001550 81 66 0.0 10.0 0.00 0.00 0.00 65 1011.0
20260505001038 81 209 3.0 7.0 0.00 0.00 0.00 65 1011.1
20260505000538 81 206 2.0 10.0 0.00 0.00 0.00 65 1011.1
20260505000055 81 172 4.0 10.0 0.00 0.00 0.00 64 1011.3
20260504235542 81 221 1.0 10.0 0.00 0.00 0.00 64 1011.1
20260504235043 82 175 2.0 10.0 0.00 0.00 0.00 63 1011.3
20260504234548 82 165 2.0 9.0 0.00 0.00 0.00 63 1011.4
20260504234039 82 214 2.0 10.0 0.00 0.00 0.00 64 1011.5
20260504233539 81 262 1.0 13.0 0.00 0.00 0.00 64 1011.4
20260504233049 81 224 4.0 13.0 0.00 0.00 0.00 64 1011.5
20260504232539 81 226 6.0 13.0 0.00 0.00 0.00 64 1011.5
20260504232042 81 207 2.0 7.0 0.00 0.00 0.00 64 1011.6
20260504231545 82 197 1.0 11.0 0.00 0.00 0.00 63 1011.7
20260504231039 82 259 2.0 11.0 0.00 0.00 0.00 63 1011.8
20260504230542 82 273 2.0 9.0 0.00 0.00 0.00 63 1011.8
20260504230051 82 203 2.0 9.0 0.00 0.00 0.00 63 1011.9
20260504225540 82 206 1.0 6.0 0.00 0.00 0.00 63 1011.9
20260504225042 81 255 1.0 8.0 0.00 0.00 0.00 64 1012.0
20260504224552 81 0 2.0 9.0 0.00 0.00 0.00 65 1012.3
20260504224039 81 230 2.0 10.0 0.00 0.00 0.00 64 1012.1
20260504223540 81 203 3.0 10.0 0.00 0.00 0.00 64 1012.2
20260504223047 81 231 2.0 12.0 0.00 0.00 0.00 64 1012.4
20260504222545 81 263 3.0 12.0 0.00 0.00 0.00 63 1012.3
20260504222040 81 236 1.0 8.0 0.00 0.00 0.00 64 1012.2
20260504221548 81 221 3.0 9.0 0.00 0.00 0.00 63 1012.2
20260504221040 81 192 4.0 9.0 0.00 0.00 0.00 63 1012.3
20260504220540 81 214 0.0 9.0 0.00 0.00 0.00 64 1012.4
20260504220052 81 258 4.0 9.0 0.00 0.00 0.00 63 1012.3
20260504215540 81 221 3.0 11.0 0.00 0.00 0.00 63 1012.3
20260504215040 81 164 3.0 11.0 0.00 0.00 0.00 63 1012.3
20260504214557 82 120 2.0 9.0 0.00 0.00 0.00 62 1012.3
20260504214040 82 209 2.0 10.0 0.00 0.00 0.00 62 1012.4
20260504213540 82 224 3.0 12.0 0.00 0.00 0.00 63 1012.4
20260504213050 81 233 2.0 12.0 0.00 0.00 0.00 63 1012.5
20260504212538 81 247 3.0 9.0 0.00 0.00 0.00 64 1012.7
20260504212043 81 247 4.0 7.0 0.00 0.00 0.00 64 1012.8
20260504211548 81 0 1.0 7.0 0.00 0.00 0.00 64 1013.0
20260504211041 81 203 0.0 9.0 0.00 0.00 0.00 64 1013.2
20260504210539 80 221 3.0 9.0 0.00 0.00 0.00 64 1013.2
20260504210059 80 208 3.0 8.0 0.00 0.00 0.00 65 1013.4
20260504205540 80 0 1.0 8.0 0.00 0.00 0.00 65 1013.5
20260504205041 80 212 3.0 10.0 0.00 0.00 0.00 65 1013.4
20260504204607 80 264 2.0 10.0 0.00 0.00 0.00 65 1013.5
20260504204041 80 0 1.0 8.0 0.00 0.00 0.00 64 1013.8
20260504203539 80 238 1.0 8.0 0.00 0.00 0.00 64 1013.8
20260504203106 80 0 2.0 8.0 0.00 0.00 0.00 65 1013.9
20260504202539 80 250 0.0 11.0 0.00 0.00 0.00 65 1013.9
20260504202040 80 0 1.0 11.0 0.00 0.00 0.00 65 1014.2
20260504201550 80 223 0.0 8.0 0.00 0.00 0.00 66 1014.0
20260504201040 79 283 3.0 8.0 0.00 0.00 0.00 66 1014.1
20260504200539 79 203 2.0 8.0 0.00 0.00 0.00 65 1014.2
20260504200054 79 126 2.0 12.0 0.00 0.00 0.00 66 1014.3
20260504195540 80 0 1.0 12.0 0.00 0.00 0.00 66 1014.3
20260504195038 80 239 4.0 12.0 0.00 0.00 0.00 64 1014.3
20260504194550 79 207 3.0 11.0 0.00 0.00 0.00 66 1014.3
20260504194038 79 190 4.0 11.0 0.00 0.00 0.00 65 1014.4
20260504193542 80 285 3.0 7.0 0.00 0.00 0.00 65 1014.5
20260504193051 80 222 0.0 7.0 0.00 0.00 0.00 66 1014.4
20260504192541 79 0 0.0 10.0 0.00 0.00 0.00 65 1014.6
20260504192041 79 233 4.0 10.0 0.00 0.00 0.00 66 1014.7
20260504191604 79 0 2.0 8.0 0.00 0.00 0.00 67 1014.7
20260504191038 79 214 2.0 12.0 0.00 0.00 0.00 67 1014.8
20260504190541 79 227 2.0 12.0 0.00 0.00 0.00 66 1014.8
20260504190056 79 222 0.0 9.0 0.00 0.00 0.00 67 1014.9
20260504185538 79 268 0.0 9.0 0.00 0.00 0.00 66 1015.0
20260504185041 79 245 4.0 11.0 0.00 0.00 0.00 66 1014.9
20260504184551 79 0 3.0 11.0 0.00 0.00 0.00 66 1014.9
20260504184039 79 203 2.0 10.0 0.00 0.00 0.00 66 1015.0
20260504183539 79 238 1.0 10.0 0.00 0.00 0.00 66 1015.3
20260504183046 79 255 4.0 10.0 0.00 0.00 0.00 66 1015.3
20260504182538 80 250 1.0 7.0 0.00 0.00 0.00 66 1015.2
20260504182038 80 244 2.0 11.0 0.00 0.00 0.00 65 1015.1
20260504181551 80 180 2.0 11.0 0.00 0.00 0.00 65 1015.4
20260504181038 80 4 2.0 10.0 0.00 0.00 0.00 66 1015.4
20260504180538 80 261 2.0 11.0 0.00 0.00 0.00 65 1015.6
20260504180058 79 203 6.0 13.0 0.00 0.00 0.00 67 1015.7
20260504175538 79 197 5.0 13.0 0.00 0.00 0.00 67 1015.6
20260504175040 79 38 1.0 11.0 0.00 0.00 0.00 65 1015.6
20260504174550 79 233 4.0 15.0 0.00 0.00 0.00 68 1015.8
20260504174038 78 253 4.0 15.0 0.00 0.00 0.00 69 1015.8
20260504173538 77 221 5.0 10.0 0.00 0.00 0.00 70 1015.8
20260504173107 77 252 0.0 10.0 0.00 0.00 0.00 70 1015.8
20260504172538 77 0 2.0 11.0 0.00 0.00 0.00 70 1016.1
20260504172038 77 226 5.0 12.0 0.00 0.00 0.00 68 1016.1
20260504171556 77 143 4.0 12.0 0.00 0.00 0.00 70 1016.0
20260504171040 77 69 5.0 12.0 0.00 0.00 0.00 69 1016.1
20260504170538 77 82 1.0 8.0 0.00 0.00 0.00 70 1016.2
20260504160106 73 253 3.0 12.0 0.00 0.00 0.00 76 1017.0
20260504151039 69 0 0.0 5.0 0.00 0.00 0.00 83 1017.4
20260504150540 69 0 0.0 7.0 0.00 0.00 0.00 82 1017.4
20260504141039 66 226 0.0 6.0 0.00 0.00 0.00 83 1017.1
20260504140544 67 0 0.0 4.0 0.00 0.00 0.00 83 1017.4
20260504130540 65 0 0.0 1.0 0.00 0.00 0.00 82 1017.1
20260504110539 0 0.0 0.0 0.00 0.00 0.00 1016.8
20260504100541 0 0.0 0.0 0.00 0.00 0.00 1016.8
20260504081548 64 0 0.0 3.0 0.00 0.00 0.00 79 1017.6
20260504081038 64 209 0.0 3.0 0.00 0.00 0.00 79 1017.7
20260504080542 64 214 0.0 2.0 0.00 0.00 0.00 79 1017.8
20260504050539 67 63 1.0 6.0 0.00 0.00 0.00 71 1019.5
20260504045538 68 0 3.0 8.0 0.00 0.00 0.00 71 1019.3
20260504045037 68 188 2.0 8.0 0.00 0.00 0.00 70 1019.5
20260504044553 68 25 2.0 8.0 0.00 0.00 0.00 70 1019.6
20260504044039 68 182 3.0 7.0 0.00 0.00 0.00 69 1019.5
20260504043539 68 203 3.0 7.0 0.00 0.00 0.00 69 1019.5
20260504043055 68 201 1.0 6.0 0.00 0.00 0.00 68 1019.5
20260504042540 68 0 2.0 7.0 0.00 0.00 0.00 67 1019.6
20260504042040 68 30 1.0 9.0 0.00 0.00 0.00 67 1019.6
20260504041548 69 111 4.0 9.0 0.00 0.00 0.00 66 1019.5
20260504041038 69 185 2.0 8.0 0.00 0.00 0.00 66 1019.5
20260504040539 69 55 2.0 12.0 0.00 0.00 0.00 65 1019.7
20260504040054 69 40 1.0 12.0 0.00 0.00 0.00 65 1019.7
20260504035538 69 0 3.0 12.0 0.00 0.00 0.00 64 1019.7
20260504035040 69 205 2.0 6.0 0.00 0.00 0.00 64 1019.5
20260504034556 69 0 1.0 6.0 0.00 0.00 0.00 64 1019.7
20260504034043 70 109 1.0 7.0 0.00 0.00 0.00 63 1019.5
20260504033540 70 209 2.0 7.0 0.00 0.00 0.00 63 1019.6
20260504033049 70 181 2.0 9.0 0.00 0.00 0.00 62 1019.6
20260504032541 70 42 0.0 9.0 0.00 0.00 0.00 62 1019.6
20260504032041 70 198 3.0 8.0 0.00 0.00 0.00 61 1019.5
20260504031546 71 226 2.0 8.0 0.00 0.00 0.00 61 1019.4
20260504031040 71 101 2.0 7.0 0.00 0.00 0.00 60 1019.4
20260504030539 71 172 0.0 7.0 0.00 0.00 0.00 59 1019.2
20260504030051 71 44 3.0 7.0 0.00 0.00 0.00 58 1019.3
20260504025540 71 59 1.0 8.0 0.00 0.00 0.00 57 1019.3
20260504025039 72 32 4.0 8.0 0.00 0.00 0.00 56 1019.2
20260504024552 72 200 2.0 6.0 0.00 0.00 0.00 55 1019.2
20260504024038 72 131 2.0 6.0 0.00 0.00 0.00 54 1019.2
20260504023539 71 203 1.0 4.0 0.00 0.00 0.00 53 1019.2
20260504023045 72 122 1.0 5.0 0.00 0.00 0.00 52 1019.2
20260504022538 71 103 1.0 5.0 0.00 0.00 0.00 52 1019.3
20260504022041 71 98 0.0 2.0 0.00 0.00 0.00 52 1019.2
20260504021542 72 0 0.0 2.0 0.00 0.00 0.00 52 1019.3
20260504021039 72 201 0.0 2.0 0.00 0.00 0.00 51 1019.1
20260504020537 72 0 0.0 1.0 0.00 0.00 0.00 51 1019.1
20260504020046 72 0 0.0 1.0 0.00 0.00 0.00 51 1019.1
20260504015540 72 0 0.0 1.0 0.00 0.00 0.00 51 1018.9
20260504015040 72 0 0.0 1.0 0.00 0.00 0.00 50 1018.8
20260504014542 73 0 0.0 1.0 0.00 0.00 0.00 49 1018.9